KE7JVX-3 Weather Reports


Display with metric or nautical units.
time (UTC)temp
F
wind
direction
speed
MPH
gust
MPH
rain 1hr
in
rain 24hr
in
rain mn
in
humidity
%
barometer
mb
20181017080149 29 95 11.0 17.0 0.00 0.21 0.00 81 1012.5
20181017075151 29 95 10.0 20.0 0.00 0.21 0.00 81 1012.4
20181017074148 29 95 11.0 17.0 0.00 0.22 0.00 81 1012.4
20181017073318 29 63 8.0 14.0 0.00 0.35 0.22 81 1012.4
20181017073147 29 94 11.0 19.0 0.00 0.22 0.22 81 1012.5
20181017072147 29 76 11.0 17.0 0.00 0.22 0.22 81 1012.4
20181017071148 29 76 10.0 16.0 0.00 0.23 0.22 81 1012.5
20181017070147 29 76 11.0 18.0 0.00 0.23 0.22 81 1012.4
20181017065148 29 76 12.0 19.0 0.00 0.25 0.22 81 1012.4
20181017064149 29 75 11.0 17.0 0.00 0.27 0.22 81 1012.4
20181017063147 29 75 8.0 18.0 0.00 0.27 0.22 81 1012.5
20181017062148 29 75 11.0 18.0 0.00 0.27 0.22 81 1012.5
20181017061147 29 74 8.0 16.0 0.00 0.27 0.22 81 1012.5
20181017060148 29 74 8.0 19.0 0.00 0.27 0.22 81 1012.5
20181017055148 29 73 12.0 18.0 0.00 0.27 0.22 81 1012.5
20181017054147 29 72 10.0 15.0 0.00 0.27 0.22 81 1012.5
20181017053147 29 72 10.0 16.0 0.00 0.29 0.22 81 1012.5
20181017052147 29 72 10.0 17.0 0.00 0.30 0.22 81 1012.5
20181017051148 29 72 11.0 17.0 0.00 0.31 0.22 81 1012.5
20181017050147 29 66 11.0 17.0 0.00 0.33 0.22 81 1012.5
20181017045147 29 63 8.0 14.0 0.00 0.35 0.22 81 1012.4
20181017044148 29 63 7.0 13.0 0.00 0.37 0.22 81 1012.3
20181017043149 29 63 8.0 16.0 0.00 0.37 0.22 81 1012.5
20181017042147 29 63 11.0 17.0 0.00 0.38 0.22 81 1012.4
20181017041148 29 63 9.0 16.0 0.00 0.40 0.22 81 1012.3
20181017040151 29 63 11.0 16.0 0.00 0.43 0.22 81 1012.4
20181017035148 28 63 10.0 18.0 0.00 0.45 0.22 81 1012.3
20181017034147 28 63 8.0 16.0 0.00 0.46 0.22 81 1012.3
20181017033147 28 63 9.0 19.0 0.00 0.47 0.22 81 1012.2
20181017031146 28 63 12.0 22.0 0.00 0.48 0.22 81 1012.1
20181017030147 28 63 12.0 26.0 0.00 0.50 0.22 81 1012.0
20181017025147 28 63 14.0 22.0 0.00 0.52 0.22 81 1012.0
20181017024146 28 64 13.0 23.0 0.01 0.52 0.22 81 1012.0
20181017023146 28 63 12.0 21.0 0.01 0.52 0.22 81 1012.0
20181017022147 28 63 12.0 21.0 0.01 0.52 0.22 81 1011.8
20181017021146 29 63 11.0 19.0 0.01 0.52 0.22 81 1011.7
20181017020148 29 63 10.0 21.0 0.01 0.52 0.22 81 1011.6
20181017015146 29 63 12.0 20.0 0.01 0.52 0.22 81 1011.5
20181017014147 29 63 11.0 19.0 0.00 0.51 0.21 80 1011.5
20181017013146 29 82 7.0 13.0 0.00 0.51 0.21 81 1011.4
20181017012147 29 76 7.0 15.0 0.00 0.51 0.21 81 1011.3
20181017011148 29 84 6.0 11.0 0.00 0.51 0.21 81 1011.3
20181017010146 29 64 6.0 14.0 0.00 0.51 0.21 81 1011.3
20181017005146 29 82 9.0 14.0 0.00 0.51 0.21 81 1011.2
20181017004436 29 74 5.0 12.0 0.00 0.51 0.21 80 1011.1
20181017004146 29 74 5.0 12.0 0.00 0.51 0.21 80 1011.1
20181017003147 29 75 6.0 13.0 0.00 0.51 0.21 81 1011.1
20181017002147 29 85 6.0 12.0 0.00 0.51 0.21 81 1011.0
20181017001146 29 94 6.0 13.0 0.01 0.51 0.21 80 1011.0
20181017000146 29 93 8.0 12.0 0.02 0.51 0.21 80 1011.0
20181016235147 29 91 7.0 12.0 0.02 0.51 0.21 81 1010.9
20181016234146 29 88 7.0 11.0 0.02 0.51 0.21 81 1010.9
20181016233147 29 82 5.0 10.0 0.02 0.51 0.21 80 1010.9
20181016232146 30 90 5.0 10.0 0.04 0.51 0.21 81 1011.0
20181016231146 30 79 5.0 11.0 0.03 0.50 0.20 80 1010.9
20181016230149 30 84 5.0 10.0 0.02 0.49 0.19 80 1010.9
20181016225146 30 94 4.0 10.0 0.03 0.49 0.19 80 1010.9
20181016224146 29 90 5.0 10.0 0.03 0.49 0.19 81 1010.9
20181016223146 29 89 5.0 10.0 0.03 0.49 0.19 80 1010.8
20181016222146 30 87 4.0 10.0 0.02 0.47 0.17 81 1010.8
20181016221146 29 91 6.0 10.0 0.02 0.47 0.17 80 1010.7
20181016220146 29 101 4.0 11.0 0.02 0.47 0.17 81 1010.7
20181016215146 29 107 6.0 11.0 0.01 0.46 0.16 80 1010.6
20181016214146 29 111 6.0 12.0 0.02 0.46 0.16 81 1010.5
20181016213148 29 98 4.0 10.0 0.03 0.46 0.16 81 1010.5
20181016212146 29 144 2.0 7.0 0.02 0.45 0.15 81 1010.5
20181016211147 29 0 0.0 7.0 0.02 0.45 0.15 81 1010.4
20181016210146 29 96 4.0 9.0 0.02 0.45 0.15 80 1010.3
20181016205147 29 105 2.0 10.0 0.03 0.45 0.15 81 1010.3
20181016204146 29 96 2.0 11.0 0.02 0.44 0.14 81 1010.3
20181016203146 29 116 5.0 10.0 0.01 0.43 0.13 81 1010.3
20181016202147 29 111 6.0 15.0 0.02 0.43 0.13 81 1010.4
20181016201146 29 117 6.0 11.0 0.02 0.43 0.13 80 1010.3
20181016200146 29 99 5.0 11.0 0.02 0.43 0.13 80 1010.3
20181016195146 29 111 3.0 8.0 0.02 0.42 0.12 80 1010.4
20181016194146 29 109 5.0 9.0 0.02 0.42 0.12 80 1010.4
20181016193146 29 138 3.0 12.0 0.02 0.42 0.12 80 1010.4
20181016192146 29 109 5.0 12.0 0.01 0.41 0.11 80 1010.3
20181016191146 29 139 5.0 13.0 0.02 0.41 0.11 80 1010.4
20181016190146 29 117 3.0 9.0 0.02 0.41 0.11 80 1010.4
20181016185146 29 107 4.0 11.0 0.01 0.40 0.10 80 1010.4
20181016184146 29 95 5.0 11.0 0.01 0.40 0.10 80 1010.5
20181016183146 28 90 3.0 11.0 0.02 0.40 0.10 80 1010.6
20181016182146 29 90 4.0 10.0 0.02 0.40 0.10 80 1010.7
20181016181146 29 100 3.0 7.0 0.01 0.39 0.09 80 1010.7
20181016180146 29 98 2.0 10.0 0.01 0.39 0.09 80 1010.6
20181016175146 29 105 2.0 10.0 0.02 0.39 0.09 80 1010.5
20181016174146 28 111 2.0 10.0 0.02 0.39 0.09 80 1010.5
20181016173147 29 101 7.0 12.0 0.01 0.38 0.08 80 1010.4
20181016172146 29 98 7.0 9.0 0.01 0.38 0.08 80 1010.3
20181016171147 29 114 3.0 10.0 0.01 0.38 0.08 80 1010.3
20181016170146 29 144 7.0 12.0 0.01 0.38 0.08 80 1010.2
20181016165146 29 163 7.0 11.0 0.00 0.37 0.07 80 1010.2
20181016164146 29 163 5.0 10.0 0.00 0.37 0.07 80 1010.2
20181016163147 28 163 1.0 9.0 0.00 0.37 0.07 80 1010.2
20181016161149 27 163 6.0 10.0 0.00 0.37 0.07 80 1010.0
20181016160149 26 163 7.0 12.0 0.00 0.37 0.07 80 1010.0
20181016155150 26 163 8.0 15.0 0.00 0.37 0.07 80 1010.0
20181016154149 26 163 8.0 14.0 0.00 0.37 0.07 80 1010.0
20181016153149 26 163 9.0 14.0 0.00 0.37 0.07 80 1010.0
20181016152149 26 163 8.0 13.0 0.00 0.37 0.07 80 1009.9
20181016151151 26 163 8.0 16.0 0.00 0.37 0.07 80 1009.7
20181016150151 27 163 11.0 16.0 0.00 0.37 0.07 80 1009.4
20181016145149 27 163 8.0 16.0 0.00 0.37 0.07 80 1009.5
20181016144149 27 162 10.0 17.0 0.00 0.37 0.07 80 1009.4
20181016143149 27 163 7.0 16.0 0.00 0.37 0.07 80 1009.4
20181016142152 27 163 9.0 17.0 0.00 0.37 0.07 80 1009.2
20181016141149 27 162 10.0 16.0 0.00 0.37 0.07 80 1009.2
20181016140149 27 162 7.0 16.0 0.00 0.37 0.07 80 1009.2
20181016135149 27 163 11.0 19.0 0.00 0.37 0.07 80 1009.0
20181016134154 27 163 12.0 19.0 0.00 0.37 0.07 80 1009.3
20181016133149 27 163 13.0 19.0 0.00 0.37 0.07 80 1009.1
20181016132149 28 163 9.0 16.0 0.00 0.37 0.07 80 1009.1
20181016131152 29 163 6.0 13.0 0.00 0.37 0.07 80 1009.3
20181016130151 29 163 4.0 6.0 0.00 0.37 0.07 80 1009.1
20181016125149 29 163 3.0 10.0 0.00 0.37 0.07 80 1009.4
20181016124151 28 163 3.0 10.0 0.00 0.37 0.07 80 1009.6
20181016123149 28 163 8.0 16.0 0.01 0.37 0.07 80 1009.6
20181016122150 28 188 6.0 13.0 0.01 0.37 0.07 80 1009.6
20181016121150 29 148 6.0 13.0 0.01 0.37 0.07 80 1009.5
20181016120153 29 170 5.0 15.0 0.01 0.37 0.07 80 1009.5
20181016115149 29 157 4.0 9.0 0.02 0.37 0.07 80 1009.7
20181016114149 29 161 4.0 10.0 0.02 0.37 0.07 80 1009.5
20181016113149 30 105 5.0 10.0 0.02 0.36 0.06 80 1009.2
20181016112149 30 107 8.0 11.0 0.03 0.36 0.06 80 1009.1
20181016111149 29 104 1.0 6.0 0.04 0.36 0.06 80 1009.1
20181016110149 29 103 2.0 13.0 0.04 0.36 0.06 80 1009.1
20181016105150 30 116 3.0 10.0 0.04 0.35 0.05 80 1009.1
20181016104149 30 112 3.0 10.0 0.04 0.35 0.05 80 1009.1
20181016103148 30 150 4.0 11.0 0.03 0.34 0.04 80 1009.2
20181016102152 30 130 4.0 9.0 0.02 0.33 0.03 80 1009.3
20181016101148 29 157 5.0 10.0 0.01 0.32 0.02 80 1009.3
20181016100148 29 135 3.0 10.0 0.01 0.32 0.02 80 1009.3
20181016095148 29 146 5.0 12.0 0.00 0.31 0.01 80 1009.6
20181016094148 29 101 3.0 10.0 0.00 0.31 0.01 80 1009.5
20181016093148 29 101 8.0 15.0 0.00 0.31 0.01 80 1009.2
20181016092149 29 86 7.0 12.0 0.00 0.31 0.01 80 1009.2
20181016091149 29 90 8.0 15.0 0.00 0.31 0.01 80 1009.2
20181016090149 29 86 9.0 16.0 0.00 0.31 0.01 80 1009.3
20181016085148 29 84 6.0 15.0 0.00 0.31 0.01 80 1009.4
20181016084148 29 86 6.0 17.0 0.01 0.31 0.01 80 1009.5
20181016083148 29 91 9.0 19.0 0.01 0.31 0.01 80 1009.5
20181016082149 29 90 9.0 19.0 0.01 0.31 0.01 80 1009.7
20181016081149 29 74 11.0 18.0 0.02 0.31 0.01 80 1009.4